Regional Weather Roundup
Issued by NWS Sterling, VA

Home | Current Version | Previous Version | Graphics & Text | Print | Product List | Glossary On
Versions: 1 2 3 4 5 6 7 8 9 10 11 12 13 14 15 16 17 18 19 20 21 22 23 24 25 26 27 28 29 30 31 32 33 34 35 36 37 38 39 40 41 42 43 44 45 46 47 48 49 50
000
ASUS41 KLWX 060910
RWRLWX

REGIONAL WEATHER ROUNDUP
NATIONAL WEATHER SERVICE BALTIMORE MD/WASHINGTON DC
500 AM EDT WED MAY 06 2015

Note: "FAIR" indicates few or no clouds below 12,000 feet
with no significant weather and/or obstructions to visibility.
 TC=TEMPERATURE CELSIUS

 * =Non NWS site. Station does not report precipitation (e.g. rain,
    snow, etc.), thunder, or fog.

DCZ001-MDZ009-015-VAZ040>042-051-053>054-061000-
WASHINGTON METRO

CITY           SKY/WX    TMP DP  RH WIND       PRES   REMARKS
WASHINGTON NAT MOCLDY    65  61  87 S5        30.20F
DULLES         CLEAR     61  59  93 NW3       30.20S
ANDREWS AFB    PTCLDY    61  61  99 S5        30.19F
FT BELVOIR     CLEAR     59  58  97 S1        30.20S FOG
QUANTICO       CLEAR     63  60  90 CALM      30.20F
COLLEGE PARK*  PTCLDY    61  61 100 CALM      30.19F
LEESBURG*      CLEAR     59  59 100 MISG      30.21F FOG
MANASSAS*      CLOUDY    57  57 100 CALM      30.20S VSB 3/4
GAITHERSBURG*  CLEAR     61  57  88 CALM      30.24S

$$

MDZ006>007-011-014-061000-
BALTIMORE METRO

CITY           SKY/WX    TMP DP  RH WIND       PRES   REMARKS
BWI AIRPORT    PTCLDY    61  58  90 E3        30.19S
MD SCIENCE CTR   N/A     67  60  78 MISG      30.20S
MARTIN STATE   CLEAR     61  61 100 CALM      30.21S FOG
ANNAPOLIS      CLEAR     63  60  90 SE6       30.20R
FORT MEADE*    CLEAR     55  54  94 CALM      30.22S

$$

MDZ012-015-019>023-061000-
MARYLAND EASTERN SHORE

CITY           SKY/WX    TMP DP  RH WIND       PRES   REMARKS
OCEAN CITY     PTCLDY    63  53  70 SW6       30.22S
SALISBURY      CLEAR     62  56  80 S3        30.22R
BAY BRIDGE AP*   N/A    N/A N/A N/A CALM      30.21S
CAMBRIDGE*     CLEAR     59  55  88 SE3       30.21S
EASTON*        CLEAR     61  61 100 CALM      30.24F

$$

MDZ017>025-061000-
SOUTHERN MARYLAND

CITY           SKY/WX    TMP DP  RH WIND       PRES   REMARKS
PATUXENT RIVER CLEAR     63  58  83 W7        30.20S
ST INIGOES     CLEAR     65  57  75 SW7       30.20F
LEONARDTOWN*   CLEAR     63  59  88 SW3       30.22S

$$

MDZ003>005-061000-
NORTH CENTRAL MARYLAND

CITY           SKY/WX    TMP DP  RH WIND       PRES   REMARKS
FREDERICK*     CLEAR     59  54  82 CALM      30.22S HAZE
HAGERSTOWN APT PTCLDY    62  58  86 CALM      30.20S
WESTMINSTER*   MOCLDY    61  57  88 CALM      30.21S

$$

MDZ501>502-061000-
WESTERN MARYLAND

CITY           SKY/WX    TMP DP  RH WIND       PRES   REMARKS
OAKLAND*       CLEAR     61  55  82 SW7       30.28S
CUMBERLAND*    CLEAR     59  59 100 CALM      30.25S

$$

VAZ025>031-061000-
SHENANDOAH VALLEY

CITY           SKY/WX    TMP DP  RH WIND       PRES   REMARKS
WINCHESTER*    CLEAR     59  54  82 CALM      30.21S HAZE
FRONT ROYAL*   FAIR      59  57  94 S3        30.19F
LURAY*         FOG       55  55 100 CALM      30.22S VSB 3/4
NEW MARKET*    CLOUDY    54  54 100 CALM      30.22S VSB 1/4
STAUNTON*      FAIR      54  52  94 CALM      30.25S FOG
WAYNESBORO*    FAIR      59  57  94 CALM      30.23F

$$

WVZ021-048>050-054>055-061000-
EASTERN WEST VIRGINIA PANHANDLE

CITY           SKY/WX    TMP DP  RH WIND       PRES   REMARKS
MARTINSBURG    CLEAR     57  55  93 CALM      30.20F FOG
PETERSBURG*    FOG       54  51  90 CALM      30.24S VSB<1/4

$$

VAZ036>039-050-061000-
CENTRAL FOOTHILLS

CITY           SKY/WX    TMP DP  RH WIND       PRES   REMARKS
CHARLOTTESVILL PTCLDY    60  60 100 S5        30.20F FOG
CULPEPER*      FOG       55  55 100 CALM      30.21R VSB 1/2
ORANGE*        CLEAR     57  55  94 CALM      30.21F FOG
GORDONSVILLE*  FAIR      55  55  99 CALM      30.19F FOG
WARRENTON*     FOG       57  57 100 CALM      30.19F VSB<1/4

$$

VAZ055>057-061000-
NORTH AND CENTRAL PIEDMONT

CITY           SKY/WX    TMP DP  RH WIND       PRES   REMARKS
FREDERICKSBRG* CLEAR     63  63 100 SE3       30.20S FOG
STAFFORD*      FOG       57  32  38 CALM      30.24F VSB 1/4

$$

NCZ024-NYZ072-PAZ021-071-VAZ022-071-061000-
OTHER REGIONAL OBSERVATIONS

CITY           SKY/WX    TMP DP  RH WIND       PRES   REMARKS
NEW YORK CITY  CLOUDY    69  37  30 VRB5      30.23R
PHILADELPHIA   CLOUDY    66  62  87 W3        30.20S
PITTSBURGH     PTCLDY    59  58  96 CALM      30.21S FOG
ROANOKE        PTCLDY    59  55  87 CALM      30.25S
RICHMOND       PTCLDY    61  53  75 S3        30.22S
RALEIGH        PTCLDY    56  52  86 CALM      30.25F

$$

ANZ530>537-061000-
MARINE OBSERVATIONS

STATION/POSITION TIME  TEMP    WIND        PRES
                       AIR SEA DIR/SP/G
                 (UTC) (F)     (DEG/KT/KT) (MB)
THOMAS PT LIGHT  0900   64 61  150/  7/  7 1023.2F
BALT KEY BRIDGE  0800   67     190/  1/  2 1022.3F
COVE POINT       0800   65     240/  6/  9 1023.3F
LEWISETTA        0800   67 66              1022.7R
SOLOMONS ISLAND  0800      62                N/A
PINEY POINT      0800          240/  4/  6   N/A

$$




USA.gov is the U.S. government's official web portal to all federal, state and local government web resources and services.